Find Starlink 31032

NORAD ID: 58535 Int'l Des: 2023-192 Owner: SPXS Country: US Constellation: starlink operational
LEOCIRCULAR

Live-Position

3D-Globus wird geladen...

Über Starlink 31032

Beschreibung wird geladen...

Nächste Überflüge

Passes for default location (London). Set your location on the main map for personalized predictions.

Höhenverlauf

Loading altitude history...

Zweizeiliger Elementsatz

1 58535U 23192E 26126.37913757 -.00000357 00000-0 55452-6 0 9995
2 58535 53.1590 154.3704 0001136 87.1533 272.9600 15.34382592134829
Epoch: 6. Mai 2026 • Age: 15 hours

Aktueller Status

Höhe 470.3 km
Geschwindigkeit 7.63 km/s
Subsatellitenpunkt -24.64°S, 125.3°E
Startdatum 8. Dez. 2023
Alter 2.4 years
Typ internet

Technische Details

Klassifizierung Payload
Masse 730.00 kg
Trockenmasse 700.00 kg
Gesamtmasse 730.00 kg
Länge 0.30 m
Durchmesser 4.10 m
Spannweite 29.00 m
Form Box + pan
Hersteller SPXS
Bus-Typ Starlink V2M
Phasenstatus In Orbit
Besitzer/Staat SPXS/US

Most Searched